Content
SEND FEEDBACK

Daily
Averages
Monthly
Summary
United States of America

ACHANG BAY, GUAM


Home > North America > United States > Guam
Elevation: 30 feet     Latitude: 13 16N     Longitude: 144 45E

WEATHER
 
SELECT A DAY
Number of Records: 341,964;   Date Range: 1/1/95 - 7/26/14
 
SHARE

PRINT THIS DATA

[ ← Previous Day ]
WEATHER ALMANAC - JANUARY 16, 2013
[ Next Day → ]
[ °C ]   °F
Weather ElementAverageHighLow
Temperature78.5 °F86 °F (12:52 pm)71.6 °F (7:34 am)
Dewpoint72.4 °F75.2 °F (5:05 pm)64.4 °F (7:34 am)
Humidity82.1 %94 % (10:21 pm)61 % (12:55 pm)
Barometer29.86 in29.90 in (7:55 am)29.81 in (1:55 pm)
Wind Speed12.3 mph19.6 mph (2:54 pm)
Weather ElementAverage
Visibility9.6 mi
Wind DirectionENE (56.9 °)

Weather ElementTotal
Precipitation0.03 in
Cooling Degree Days13.8 (Base 65)
Growing Degree Days28.8 (Base 50)
Averaged from 85 records on January 16, 2013
WEATHER CONDITIONS BREAKOUT
WIND DIRECTION BREAKOUT
WEATHER BY HOUR - JANUARY 16, 2013
[ °C ]   °F
Local TimeTemperatureDewpointHumidityBarometerVisibilityWind DirectionWind SpeedGust SpeedPrecipitationEventsConditions
12:30 AM78.8 °F69.8 °F74 %29.85 in10.0 miNE (50°)9.2 mphScattered Clouds
12:55 AM76.1 °F70.7 °F83 %29.85 in10.0 miNE (50°)9.2 mphPartly Cloudy
1:45 AM77.0 °F71.6 °F83 %29.84 in10.0 miENE (60°)10.4 mphOvercast
1:55 AM76.1 °F71.2 °F85 %29.84 in10.0 miEast (80°)11.5 mphMostly Cloudy
1:59 AM77.0 °F71.6 °F83 %29.84 in10.0 miENE (70°)10.4 mphMostly Cloudy
2:00 AM77.0 °F71.6 °F83 %29.84 in10.0 miENE (70°)9.2 mphMostly Cloudy
2:03 AM75.2 °F69.8 °F83 %29.84 in10.0 miENE (70°)10.4 mphScattered Clouds
2:55 AM75.4 °F68.9 °F80 %29.84 in10.0 miENE (60°)10.4 mphClear
3:55 AM75.0 °F69.6 °F83 %29.85 in10.0 miEast (80°)10.4 mphPartly Cloudy
4:15 AM75.2 °F69.8 °F83 %29.84 in10.0 miEast (80°)8.1 mphMostly Cloudy
4:31 AM77.0 °F69.8 °F78 %29.85 in10.0 miEast (90°)9.2 mphScattered Clouds
4:55 AM76.3 °F70.0 °F81 %29.85 in10.0 miENE (60°)10.4 mphMostly Cloudy
5:55 AM76.5 °F70.5 °F82 %29.86 in10.0 miENE (60°)9.2 mphMostly Cloudy
6:55 AM77.0 °F65.3 °F67 %29.88 in10.0 miENE (60°)10.4 mphClear
7:25 AM77.0 °F71.6 °F83 %29.89 in10.0 miENE (60°)9.2 mphRainLight Rain
7:34 AM71.6 °F64.4 °F78 %29.89 in10.0 miENE (60°)9.2 mphClear
7:55 AM79.5 °F71.6 °F77 %29.90 in10.0 miENE (60°)9.2 mph0.00 inClear
8:55 AM75.2 °F65.7 °F72 %29.90 in10.0 miENE (60°)10.4 mphClear
9:55 AM82.4 °F68.0 °F62 %29.90 in10.0 miENE (60°)11.5 mphPartly Cloudy
10:55 AM84.2 °F71.6 °F66 %29.88 in10.0 miNE (40°)15.0 mphScattered Clouds
11:55 AM84.7 °F73.6 °F69 %29.86 in10.0 miNE (50°)12.7 mphPartly Cloudy
12:43 PM82.4 °F73.4 °F74 %29.84 in10.0 miENE (60°)12.7 mphMostly Cloudy
12:52 PM86.0 °F73.4 °F66 %29.83 in10.0 miENE (70°)15.0 mphMostly Cloudy
12:55 PM84.2 °F69.6 °F61 %29.83 in10.0 miENE (60°)12.7 mphMostly Cloudy
1:02 PM86.0 °F71.6 °F62 %29.83 in10.0 miENE (60°)13.8 mphMostly Cloudy
1:04 PM86.0 °F71.6 °F62 %29.83 in10.0 miENE (60°)12.7 mphMostly Cloudy
1:55 PM84.2 °F71.6 °F66 %29.81 in10.0 miENE (60°)11.5 mphScattered Clouds
2:07 PM84.2 °F73.4 °F70 %29.81 in10.0 miNE (50°)12.7 mphMostly Cloudy
2:39 PM82.4 °F73.4 °F74 %29.81 in10.0 miNE (40°)13.8 mphMostly Cloudy
2:44 PM82.4 °F71.6 °F70 %29.81 in10.0 miNE (50°)11.5 mphMostly Cloudy
2:45 PM82.4 °F71.6 °F70 %29.81 in10.0 miNE (40°)12.7 mphRainLight Rain
2:54 PM82.4 °F73.4 °F74 %29.82 in10.0 miNE (50°)19.6 mphMostly Cloudy
2:55 PM82.4 °F68.7 °F63 %29.82 in10.0 miNE (50°)17.3 mph0.00 inMostly Cloudy
2:58 PM82.4 °F73.4 °F74 %29.81 in10.0 miENE (60°)17.3 mphMostly Cloudy
2:59 PM82.4 °F73.4 °F74 %29.82 in9.0 miENE (60°)18.4 mphLight Drizzle
3:14 PM82.4 °F73.4 °F74 %29.82 in9.0 miNE (50°)12.7 mphOvercast
3:16 PM82.4 °F73.4 °F74 %29.82 in10.0 miNE (50°)12.7 mphMostly Cloudy
3:55 PM76.6 °F68.4 °F75 %29.82 in10.0 miNE (50°)10.4 mph0.00 inScattered Clouds
4:04 PM75.2 °F68.0 °F78 %29.82 in10.0 miENE (60°)11.5 mphMostly Cloudy
4:09 PM73.4 °F66.2 °F78 %29.82 in10.0 miENE (70°)12.7 mphMostly Cloudy
4:55 PM73.8 °F65.8 °F76 %29.84 in10.0 miNE (40°)12.7 mphScattered Clouds
4:57 PM75.2 °F68.0 °F78 %29.84 in10.0 miNE (50°)12.7 mphMostly Cloudy
5:05 PM82.4 °F75.2 °F79 %29.83 in10.0 miENE (60°)13.8 mphMostly Cloudy
5:24 PM80.6 °F75.2 °F84 %29.84 in10.0 miNE (50°)12.7 mphLight Drizzle
5:33 PM78.8 °F73.4 °F83 %29.84 in10.0 miENE (60°)11.5 mphScattered Clouds
5:54 PM73.4 °F69.8 °F88 %29.85 in10.0 miNE (50°)10.4 mphRainLight Rain
5:55 PM73.0 °F68.5 °F86 %29.85 in10.0 miNE (50°)10.4 mph0.00 inLight Drizzle
6:04 PM77.0 °F73.4 °F89 %29.85 in10.0 miENE (60°)11.5 mphScattered Clouds
6:55 PM79.2 °F74.5 °F86 %29.87 in10.0 miNE (50°)12.7 mph0.00 inPartly Cloudy
7:43 PM78.8 °F73.4 °F83 %29.88 in10.0 miENE (60°)13.8 mphMostly Cloudy
7:46 PM78.8 °F73.4 °F83 %29.88 in10.0 miENE (60°)11.5 mphMostly Cloudy
7:47 PM78.8 °F73.4 °F83 %29.88 in10.0 miENE (60°)12.7 mphMostly Cloudy
7:50 PM78.8 °F73.4 °F83 %29.88 in10.0 miENE (60°)12.7 mphScattered Clouds
7:55 PM78.3 °F73.6 °F85 %29.88 in10.0 miENE (60°)13.8 mphScattered Clouds
8:55 PM78.1 °F73.8 °F86 %29.88 in10.0 miENE (60°)12.7 mphPartly Cloudy
9:23 PM77.0 °F73.4 °F89 %29.88 in10.0 miNE (50°)12.7 mphMostly Cloudy
9:26 PM77.0 °F73.4 °F89 %29.88 in10.0 miENE (60°)12.7 mphMostly Cloudy
9:27 PM77.0 °F73.4 °F89 %29.88 in10.0 miENE (60°)11.5 mphMostly Cloudy
9:31 PM77.0 °F73.4 °F89 %29.88 in9.0 miNE (50°)11.5 mphRainLight Rain
9:39 PM78.8 °F75.2 °F89 %29.88 in9.0 miNE (50°)10.4 mphLight Drizzle
9:41 PM78.8 °F75.2 °F89 %29.88 in10.0 miNE (50°)10.4 mphScattered Clouds
9:44 PM78.8 °F75.2 °F89 %29.88 in10.0 miNE (50°)11.5 mphMostly Cloudy
9:45 PM78.8 °F75.2 °F89 %29.88 in10.0 miNE (50°)11.5 mphMostly Cloudy
9:55 PM78.1 °F74.7 °F89 %29.88 in10.0 miNE (40°)11.5 mph0.00 inScattered Clouds
10:09 PM78.8 °F75.2 °F89 %29.88 in9.0 miNE (50°)17.3 mphRainLight Rain
10:11 PM78.8 °F75.2 °F89 %29.88 in8.0 miNE (40°)15.0 mphRainLight Rain
10:15 PM78.8 °F75.2 °F89 %29.88 in7.0 miENE (60°)12.7 mphRainLight Rain
10:21 PM77.0 °F75.2 °F94 %29.87 in9.0 miENE (70°)15.0 mphMostly Cloudy
10:25 PM77.0 °F75.2 °F94 %29.87 in6.0 miENE (70°)12.7 mphRainLight Rain
10:26 PM77.0 °F75.2 °F94 %29.87 in6.0 miENE (70°)11.5 mphRainLight Rain
10:34 PM77.0 °F75.2 °F94 %29.87 in7.0 miENE (60°)9.2 mphOvercast
10:37 PM77.0 °F75.2 °F94 %29.87 in8.0 miNE (50°)12.7 mphRainHeavy Rain
10:41 PM77.0 °F75.2 °F94 %29.88 in8.0 miNE (50°)15.0 mphRainLight Rain
10:44 PM77.0 °F75.2 °F94 %29.87 in8.0 miNE (50°)15.0 mphRainLight Rain
10:46 PM77.0 °F75.2 °F94 %29.87 in9.0 miNE (50°)13.8 mphOvercast
10:50 PM77.0 °F75.2 °F94 %29.87 in10.0 miENE (60°)12.7 mphMostly Cloudy
10:55 PM77.2 °F74.5 °F91 %29.87 in10.0 miENE (60°)13.8 mph0.03 inMostly Cloudy
11:00 PM77.0 °F75.2 °F94 %29.87 in10.0 miNE (50°)13.8 mphMostly Cloudy
11:17 PM77.0 °F75.2 °F94 %29.87 in10.0 miNE (50°)11.5 mphMostly Cloudy
11:18 PM77.0 °F75.2 °F94 %29.87 in10.0 miENE (60°)12.7 mphMostly Cloudy
11:32 PM77.0 °F75.2 °F94 %29.87 in9.0 miNE (50°)16.1 mphRainLight Rain
11:37 PM77.0 °F75.2 °F94 %29.87 in9.0 miENE (60°)11.5 mphRainLight Rain
11:42 PM77.0 °F75.2 °F94 %29.87 in10.0 miENE (60°)11.5 mphMostly Cloudy
11:47 PM77.0 °F75.2 °F94 %29.87 in10.0 miNE (50°)13.8 mphScattered Clouds
11:55 PM77.2 °F74.8 °F92 %29.87 in10.0 miNE (50°)11.5 mph0.00 inPartly Cloudy
Hourly data recorded from PGUA, located miles away from Achang Bay, Guam







STORIES FROM OUR PARTNERS